Retour au catalogue

STARLINK-34988

ActifCommunicationsSSO
NORAD 65453·PAYLOAD·🇺🇸 United States

Lancé Sep 3, 2025 depuis Vandenberg Space Force Base

Loading…

Prochains Passages (prochaines 24 heures)

TLE

FraisSource: CelesTrak SupGP

Époque: Sep 14, 2026, 22:39 UTC

1 65453C 25194V   26257.94423611  .00066759  00000+0  47382-2 0  2571
2 65453  97.2851 108.2493 0001310  83.6321 279.7375 15.04801642    14

Suivez STARLINK-34988 en temps réel avec AllMySat

Download on the App Store